Time,TemperatureF,DewpointF,PressureIn,WindDirection,WindDirectionDegrees,WindSpeedMPH,WindSpeedGustMPH,Humidity,HourlyPrecipIn,Conditions,Clouds,dailyrainin,SoftwareType,DateUTC
2013-01-09 00:29:00,53.3,27.0,30.08,East,85,0.0,8.0,36,0.00,,,0.00,VWS V14.01,2013-01-09 08:29:00,
2013-01-09 00:59:00,53.5,27.9,30.08,East,85,0.0,3.0,37,0.00,,,0.00,VWS V14.01,2013-01-09 08:59:00,
2013-01-09 01:29:00,51.4,29.1,30.08,East,83,0.0,7.0,42,0.00,,,0.00,VWS V14.01,2013-01-09 09:29:00,
2013-01-09 01:59:00,49.6,29.1,30.07,East,88,0.0,7.0,45,0.00,,,0.00,VWS V14.01,2013-01-09 09:59:00,
2013-01-09 02:29:00,48.6,29.3,30.06,East,79,1.0,9.0,47,0.00,,,0.00,VWS V14.01,2013-01-09 10:29:00,
2013-01-09 02:59:00,49.6,29.1,30.07,East,82,2.0,6.0,45,0.00,,,0.00,VWS V14.01,2013-01-09 10:59:00,
2013-01-09 03:29:00,47.6,29.9,30.07,ENE,70,3.0,8.0,50,0.00,,,0.00,VWS V14.01,2013-01-09 11:29:00,
2013-01-09 03:59:00,45.1,29.9,30.07,ENE,70,5.0,9.0,55,0.00,,,0.00,VWS V14.01,2013-01-09 11:59:00,
2013-01-09 04:29:00,44.0,29.8,30.06,East,79,6.0,11.0,57,0.00,,,0.00,VWS V14.01,2013-01-09 12:29:00,
2013-01-09 04:59:00,44.4,29.7,30.06,East,81,8.0,10.0,56,0.00,,,0.00,VWS V14.01,2013-01-09 12:59:00,
2013-01-09 05:29:00,43.5,30.1,30.06,ENE,78,5.0,10.0,59,0.00,,,0.00,VWS V14.01,2013-01-09 13:29:00,
2013-01-09 05:59:00,42.7,30.2,30.08,ENE,70,7.0,9.0,61,0.00,,,0.00,VWS V14.01,2013-01-09 13:59:00,
2013-01-09 06:29:00,43.1,30.2,30.08,ENE,76,5.0,10.0,60,0.00,,,0.00,VWS V14.01,2013-01-09 14:29:00,
2013-01-09 06:59:00,42.9,30.8,30.08,ENE,75,3.0,8.0,62,0.00,,,0.00,VWS V14.01,2013-01-09 14:59:00,
2013-01-09 07:29:00,45.0,31.5,30.09,East,85,3.0,8.0,59,0.00,,,0.00,VWS V14.01,2013-01-09 15:29:00,
2013-01-09 07:59:00,50.8,32.3,30.08,East,87,0.0,9.0,49,0.00,,,0.00,VWS V14.01,2013-01-09 15:59:00,
2013-01-09 08:29:00,55.2,33.7,30.09,East,87,0.0,3.0,44,0.00,,,0.00,VWS V14.01,2013-01-09 16:29:00,
2013-01-09 08:59:00,62.0,31.8,30.09,East,87,0.0,1.0,32,0.00,,,0.00,VWS V14.01,2013-01-09 16:59:00,
2013-01-09 09:29:00,64.1,32.1,30.08,ESE,112,4.0,10.0,30,0.00,,,0.00,VWS V14.01,2013-01-09 17:29:00,
2013-01-09 09:59:00,64.5,31.6,30.08,East,85,9.0,14.0,29,0.00,,,0.00,VWS V14.01,2013-01-09 17:59:00,
2013-01-09 10:29:00,64.9,31.9,30.06,SE,124,4.0,13.0,29,0.00,,,0.00,VWS V14.01,2013-01-09 18:29:00,
2013-01-09 10:59:00,66.7,30.8,30.04,WSW,252,0.0,8.0,26,0.00,,,0.00,VWS V14.01,2013-01-09 18:59:00,
2013-01-09 11:29:00,66.5,33.3,30.03,West,270,0.0,11.0,29,0.00,,,0.00,VWS V14.01,2013-01-09 19:29:00,
2013-01-09 11:59:00,67.5,35.0,30.02,WSW,258,3.0,9.0,30,0.00,,,0.00,VWS V14.01,2013-01-09 19:59:00,
2013-01-09 12:29:00,66.4,33.2,30.01,West,262,1.0,10.0,29,0.00,,,0.00,VWS V14.01,2013-01-09 20:29:00,
2013-01-09 12:59:00,66.7,33.5,30.00,WNW,287,3.0,11.0,29,0.00,,,0.00,VWS V14.01,2013-01-09 20:59:00,
2013-01-09 13:29:00,65.3,32.3,29.99,WNW,297,0.0,10.0,29,0.00,,,0.00,VWS V14.01,2013-01-09 21:29:00,
2013-01-09 13:59:00,65.2,33.8,29.98,NW,305,5.0,8.0,31,0.00,,,0.00,VWS V14.01,2013-01-09 21:59:00,
2013-01-09 14:29:00,64.0,35.8,29.99,WNW,301,2.0,7.0,35,0.00,,,0.00,VWS V14.01,2013-01-09 22:29:00,
2013-01-09 14:59:00,64.0,36.5,29.98,NW,306,1.0,8.0,36,0.00,,,0.00,VWS V14.01,2013-01-09 22:59:00,
2013-01-09 15:29:00,63.0,38.3,29.97,West,278,0.0,6.0,40,0.00,,,0.00,VWS V14.01,2013-01-09 23:29:00,
2013-01-09 15:59:00,61.8,40.8,29.97,WNW,291,2.0,6.0,46,0.00,,,0.00,VWS V14.01,2013-01-09 23:59:00,
2013-01-09 16:29:00,59.3,41.2,29.97,WNW,288,0.0,4.0,51,0.00,,,0.00,VWS V14.01,2013-01-10 00:29:00,
2013-01-09 16:59:00,54.6,42.3,29.97,West,262,0.0,5.0,63,0.00,,,0.00,VWS V14.01,2013-01-10 00:59:00,
2013-01-09 17:29:00,51.0,40.8,29.97,ENE,70,0.0,4.0,68,0.00,,,0.00,VWS V14.01,2013-01-10 01:29:00,
2013-01-09 17:59:00,46.9,39.4,29.97,ENE,78,3.0,5.0,75,0.00,,,0.00,VWS V14.01,2013-01-10 01:59:00,
2013-01-09 18:29:00,45.5,39.4,29.97,ENE,76,0.0,7.0,79,0.00,,,0.00,VWS V14.01,2013-01-10 02:29:00,
2013-01-09 18:59:00,46.0,40.2,29.96,East,83,5.0,7.0,80,0.00,,,0.00,VWS V14.01,2013-01-10 02:59:00,
2013-01-09 19:29:00,45.8,40.0,29.96,East,90,3.0,7.0,80,0.00,,,0.00,VWS V14.01,2013-01-10 03:29:00,
2013-01-09 19:59:00,44.3,37.9,29.95,East,92,3.0,8.0,78,0.00,,,0.00,VWS V14.01,2013-01-10 03:59:00,
2013-01-09 20:29:00,43.0,33.9,29.94,ENE,77,5.0,9.0,70,0.00,,,0.00,VWS V14.01,2013-01-10 04:29:00,
2013-01-09 20:59:00,41.3,33.0,29.94,East,81,3.0,8.0,72,0.00,,,0.00,VWS V14.01,2013-01-10 04:59:00,
2013-01-09 21:29:00,42.2,33.5,29.94,ENE,77,3.0,9.0,71,0.00,,,0.00,VWS V14.01,2013-01-10 05:29:00,
2013-01-09 21:59:00,42.0,33.6,29.94,ENE,75,3.0,8.0,72,0.00,,,0.00,VWS V14.01,2013-01-10 05:59:00,
2013-01-09 22:29:00,41.1,32.4,29.94,ENE,65,7.0,9.0,71,0.00,,,0.00,VWS V14.01,2013-01-10 06:29:00,
2013-01-09 22:59:00,40.5,31.5,29.94,East,87,7.0,10.0,70,0.00,,,0.00,VWS V14.01,2013-01-10 06:59:00,
2013-01-09 23:29:00,40.5,30.4,29.94,East,83,7.0,10.0,67,0.00,,,0.00,VWS V14.01,2013-01-10 07:29:00,
2013-01-09 23:59:00,40.5,30.0,29.92,East,95,2.0,8.0,66,0.00,,,0.00,VWS V14.01,2013-01-10 07:59:00,